Time,TemperatureF,DewpointF,PressureIn,WindDirection,WindDirectionDegrees,WindSpeedMPH,WindSpeedGustMPH,Humidity,HourlyPrecipIn,Conditions,Clouds,dailyrainin,SoftwareType,DateUTC
2013-03-31 00:00:00,26.8,18.0,30.25,North,0,0.0,0.0,69,0.00,CLR,,0.00,WeatherDisplay:10.37,2013-03-31 08:00:00,
2013-03-31 00:09:00,27.0,17.2,30.25,North,0,1.0,0.0,66,0.00,CLR,,0.00,WeatherDisplay:10.37,2013-03-31 08:09:00,
2013-03-31 00:15:00,27.1,17.3,30.25,North,0,1.0,0.0,66,0.00,CLR,,0.00,WeatherDisplay:10.37,2013-03-31 08:15:00,
2013-03-31 00:24:00,26.8,18.0,30.25,North,0,0.0,0.0,69,0.00,CLR,,0.00,WeatherDisplay:10.37,2013-03-31 08:24:00,
2013-03-31 00:29:00,26.1,17.3,30.25,North,0,0.0,0.0,69,0.00,CLR,,0.00,WeatherDisplay:10.37,2013-03-31 08:29:00,
2013-03-31 00:34:00,25.8,18.4,30.25,North,0,0.0,0.0,73,0.00,CLR,,0.00,WeatherDisplay:10.37,2013-03-31 08:34:00,
2013-03-31 00:39:00,25.5,19.0,30.25,North,0,0.0,0.0,76,0.00,CLR,,0.00,WeatherDisplay:10.37,2013-03-31 08:39:00,
2013-03-31 00:45:00,25.2,18.0,30.25,North,0,0.0,0.0,74,0.00,CLR,,0.00,WeatherDisplay:10.37,2013-03-31 08:45:00,
2013-03-31 00:54:00,25.9,15.1,30.26,North,0,1.0,0.0,63,0.00,CLR,,0.00,WeatherDisplay:10.37,2013-03-31 08:54:00,
2013-03-31 01:00:00,26.4,16.2,30.26,North,0,1.0,0.0,65,0.00,CLR,,0.00,WeatherDisplay:10.37,2013-03-31 09:00:00,
2013-03-31 01:15:00,27.0,16.0,30.26,North,0,1.0,1.0,63,0.00,CLR,,0.00,WeatherDisplay:10.37,2013-03-31 09:15:00,
2013-03-31 01:20:00,26.9,18.7,30.26,NNE,14,0.0,0.0,71,0.00,CLR,,0.00,WeatherDisplay:10.37,2013-03-31 09:20:00,
2013-03-31 01:25:00,26.4,18.3,30.26,NE,44,1.0,0.0,71,0.00,CLR,,0.00,WeatherDisplay:10.37,2013-03-31 09:25:00,
2013-03-31 01:30:00,26.1,17.9,30.26,NE,47,0.0,0.0,71,0.00,CLR,,0.00,WeatherDisplay:10.37,2013-03-31 09:30:00,
2013-03-31 01:40:00,25.5,18.1,30.26,NE,47,0.0,0.0,73,0.00,CLR,,0.00,WeatherDisplay:10.37,2013-03-31 09:40:00,
2013-03-31 01:45:00,25.2,17.7,30.26,NE,47,0.0,0.0,73,0.00,CLR,,0.00,WeatherDisplay:10.37,2013-03-31 09:45:00,
2013-03-31 01:55:00,24.4,17.3,30.26,NNE,27,0.0,0.0,74,0.00,CLR,,0.00,WeatherDisplay:10.37,2013-03-31 09:55:00,
2013-03-31 02:00:00,24.4,17.6,30.26,NNE,27,0.0,0.0,75,0.00,CLR,,0.00,WeatherDisplay:10.37,2013-03-31 10:00:00,
2013-03-31 02:10:00,24.6,17.5,30.26,NE,45,0.0,0.0,74,0.00,CLR,,0.00,WeatherDisplay:10.37,2013-03-31 10:10:00,
2013-03-31 02:15:00,24.4,17.3,30.26,NNE,24,0.0,0.0,74,0.00,CLR,,0.00,WeatherDisplay:10.37,2013-03-31 10:15:00,
2013-03-31 02:25:00,24.3,17.2,30.26,WNW,292,0.0,0.0,74,0.00,CLR,,0.00,WeatherDisplay:10.37,2013-03-31 10:25:00,
2013-03-31 02:30:00,24.3,17.2,30.26,NW,325,0.0,0.0,74,0.00,CLR,,0.00,WeatherDisplay:10.37,2013-03-31 10:30:00,
2013-03-31 02:35:00,24.4,18.0,30.26,NNE,28,0.0,0.0,76,0.00,CLR,,0.00,WeatherDisplay:10.37,2013-03-31 10:35:00,
2013-03-31 02:40:00,24.6,17.2,30.26,NNE,23,0.0,0.0,73,0.00,CLR,,0.00,WeatherDisplay:10.37,2013-03-31 10:40:00,
2013-03-31 02:45:00,24.8,18.3,30.26,NNE,21,0.0,0.0,76,0.00,CLR,,0.00,WeatherDisplay:10.37,2013-03-31 10:45:00,
2013-03-31 02:55:00,24.7,17.0,30.27,SSE,162,0.0,0.0,72,0.00,CLR,,0.00,WeatherDisplay:10.37,2013-03-31 10:55:00,
2013-03-31 03:00:00,24.7,17.6,30.27,East,99,1.0,0.0,74,0.00,CLR,,0.00,WeatherDisplay:10.37,2013-03-31 11:00:00,
2013-03-31 03:05:00,24.7,16.9,30.27,ENE,67,1.0,0.0,72,0.00,CLR,,0.00,WeatherDisplay:10.37,2013-03-31 11:05:00,
2013-03-31 03:15:00,24.1,17.0,30.27,ENE,58,1.0,0.0,74,0.00,CLR,,0.00,WeatherDisplay:10.37,2013-03-31 11:15:00,
2013-03-31 03:20:00,23.9,17.1,30.27,NE,38,1.0,0.0,75,0.00,CLR,,0.00,WeatherDisplay:10.37,2013-03-31 11:20:00,
2013-03-31 03:25:00,23.9,17.4,30.27,NE,39,1.0,0.0,76,0.00,CLR,,0.00,WeatherDisplay:10.37,2013-03-31 11:25:00,
2013-03-31 03:30:00,24.0,17.5,30.28,NNW,342,0.0,0.0,76,0.00,CLR,,0.00,WeatherDisplay:10.37,2013-03-31 11:30:00,
2013-03-31 03:40:00,23.7,16.6,30.28,North,6,0.0,0.0,74,0.00,CLR,,0.00,WeatherDisplay:10.37,2013-03-31 11:40:00,
2013-03-31 03:45:00,23.6,16.2,30.28,West,272,0.0,0.0,73,0.00,CLR,,0.00,WeatherDisplay:10.37,2013-03-31 11:45:00,
2013-03-31 03:50:00,23.5,15.8,30.28,WNW,295,0.0,0.0,72,0.00,CLR,,0.00,WeatherDisplay:10.37,2013-03-31 11:50:00,
2013-03-31 04:00:00,23.2,15.2,30.28,NW,317,0.0,0.0,71,0.00,CLR,,0.00,WeatherDisplay:10.37,2013-03-31 12:00:00,
2013-03-31 04:10:00,22.5,14.1,30.28,West,263,0.0,0.0,70,0.00,CLR,,0.00,WeatherDisplay:10.37,2013-03-31 12:10:00,
2013-03-31 04:15:00,22.3,14.6,30.28,WNW,292,0.0,0.0,72,0.00,CLR,,0.00,WeatherDisplay:10.37,2013-03-31 12:15:00,
2013-03-31 04:20:00,22.1,13.8,30.28,West,271,0.0,0.0,70,0.00,CLR,,0.00,WeatherDisplay:10.37,2013-03-31 12:20:00,
2013-03-31 04:25:00,21.9,14.6,30.28,West,261,0.0,0.0,73,0.00,CLR,,0.00,WeatherDisplay:10.37,2013-03-31 12:25:00,
2013-03-31 04:30:00,21.7,15.0,30.28,NNW,336,0.0,0.0,75,0.00,CLR,,0.00,WeatherDisplay:10.37,2013-03-31 12:30:00,
2013-03-31 04:35:00,21.7,14.7,30.28,North,8,0.0,0.0,74,0.00,CLR,,0.00,WeatherDisplay:10.37,2013-03-31 12:35:00,
2013-03-31 04:40:00,21.9,14.9,30.28,NE,36,0.0,0.0,74,0.00,CLR,,0.00,WeatherDisplay:10.37,2013-03-31 12:40:00,
2013-03-31 04:45:00,21.9,14.6,30.28,ENE,57,0.0,0.0,73,0.00,CLR,,0.00,WeatherDisplay:10.37,2013-03-31 12:45:00,
2013-03-31 04:55:00,22.5,15.7,30.28,NE,55,0.0,0.0,75,0.00,CLR,,0.00,WeatherDisplay:10.37,2013-03-31 12:55:00,
2013-03-31 05:00:00,22.5,16.0,30.28,NE,55,0.0,0.0,76,0.00,CLR,,0.00,WeatherDisplay:10.37,2013-03-31 13:00:00,
2013-03-31 05:10:00,22.5,16.6,30.28,NNE,28,0.0,0.0,78,0.00,CLR,,0.00,WeatherDisplay:10.37,2013-03-31 13:10:00,
2013-03-31 05:15:00,22.3,15.9,30.28,North,356,0.0,0.0,76,0.00,CLR,,0.00,WeatherDisplay:10.37,2013-03-31 13:15:00,
2013-03-31 05:25:00,22.5,16.3,30.28,NNE,29,0.0,0.0,77,0.00,CLR,,0.00,WeatherDisplay:10.37,2013-03-31 13:25:00,
2013-03-31 05:30:00,22.5,16.3,30.28,ENE,58,0.0,0.0,77,0.00,CLR,,0.00,WeatherDisplay:10.37,2013-03-31 13:30:00,
2013-03-31 05:35:00,22.3,16.2,30.28,South,175,0.0,0.0,77,0.00,CLR,,0.00,WeatherDisplay:10.37,2013-03-31 13:35:00,
2013-03-31 05:40:00,21.9,15.5,30.28,SW,234,0.0,0.0,76,0.00,CLR,,0.00,WeatherDisplay:10.37,2013-03-31 13:40:00,
2013-03-31 05:45:00,21.6,16.1,30.28,West,268,0.0,0.0,79,0.00,CLR,,0.00,WeatherDisplay:10.37,2013-03-31 13:45:00,
2013-03-31 05:50:00,21.6,15.2,30.28,WSW,252,0.0,0.0,76,0.00,CLR,,0.00,WeatherDisplay:10.37,2013-03-31 13:50:00,
2013-03-31 05:55:00,21.9,15.2,30.28,West,277,0.0,0.0,75,0.00,CLR,,0.00,WeatherDisplay:10.37,2013-03-31 13:55:00,
2013-03-31 06:00:00,22.7,16.5,30.28,NNW,334,0.0,0.0,77,0.00,CLR,,0.00,WeatherDisplay:10.37,2013-03-31 14:00:00,
2013-03-31 06:10:00,23.4,17.2,30.28,NE,40,0.0,0.0,77,0.00,CLR,,0.00,WeatherDisplay:10.37,2013-03-31 14:10:00,
2013-03-31 06:15:00,23.4,16.9,30.28,WNW,295,0.0,0.0,76,0.00,CLR,,0.00,WeatherDisplay:10.37,2013-03-31 14:15:00,
2013-03-31 06:20:00,23.5,17.1,30.28,West,259,0.0,0.0,76,0.00,CLR,,0.00,WeatherDisplay:10.37,2013-03-31 14:20:00,
2013-03-31 06:30:00,23.7,16.0,30.28,West,261,0.0,0.0,72,0.00,CLR,,0.00,WeatherDisplay:10.37,2013-03-31 14:30:00,
2013-03-31 06:40:00,23.7,16.0,30.28,WSW,253,0.0,0.0,72,0.00,CLR,,0.00,WeatherDisplay:10.37,2013-03-31 14:40:00,
2013-03-31 06:45:00,23.9,17.4,30.29,WSW,251,0.0,0.0,76,0.00,CLR,,0.00,WeatherDisplay:10.37,2013-03-31 14:45:00,
2013-03-31 06:50:00,24.1,16.4,30.29,WSW,241,0.0,0.0,72,0.00,CLR,,0.00,WeatherDisplay:10.37,2013-03-31 14:50:00,
2013-03-31 06:55:00,24.1,16.7,30.29,West,274,0.0,0.0,73,0.00,CLR,,0.00,WeatherDisplay:10.37,2013-03-31 14:55:00,
2013-03-31 07:00:00,24.1,16.0,30.29,WSW,250,0.0,0.0,71,0.00,CLR,,0.00,WeatherDisplay:10.37,2013-03-31 15:00:00,
2013-03-31 07:10:00,24.3,16.5,30.29,SW,236,0.0,0.0,72,0.00,CLR,,0.00,WeatherDisplay:10.37,2013-03-31 15:10:00,
2013-03-31 07:15:00,24.3,17.2,30.29,WSW,240,0.0,0.0,74,0.00,CLR,,0.00,WeatherDisplay:10.37,2013-03-31 15:15:00,
2013-03-31 07:25:00,24.3,18.1,30.29,SW,215,0.0,0.0,77,0.00,CLR,,0.00,WeatherDisplay:10.37,2013-03-31 15:25:00,
2013-03-31 07:30:00,24.4,18.2,30.29,NE,54,0.0,0.0,77,0.00,CLR,,0.00,WeatherDisplay:10.37,2013-03-31 15:30:00,
2013-03-31 07:35:00,24.6,18.4,30.29,NE,45,0.0,0.0,77,0.00,CLR,,0.00,WeatherDisplay:10.37,2013-03-31 15:35:00,
2013-03-31 07:45:00,24.7,18.5,30.29,East,85,0.0,0.0,77,0.00,CLR,,0.00,WeatherDisplay:10.37,2013-03-31 15:45:00,
2013-03-31 07:55:00,24.7,20.3,30.29,NE,54,0.0,0.0,83,0.00,CLR,,0.00,WeatherDisplay:10.37,2013-03-31 15:55:00,
2013-03-31 08:00:00,24.8,18.0,30.29,NE,49,0.0,0.0,75,0.00,CLR,,0.00,WeatherDisplay:10.37,2013-03-31 16:00:00,
2013-03-31 08:10:00,25.2,18.3,30.29,ENE,71,0.0,0.0,75,0.00,CLR,,0.00,WeatherDisplay:10.37,2013-03-31 16:10:00,
2013-03-31 08:15:00,25.5,18.4,30.29,ENE,61,0.0,0.0,74,0.00,CLR,,0.00,WeatherDisplay:10.37,2013-03-31 16:15:00,
2013-03-31 08:25:00,25.9,18.7,30.29,NE,42,1.0,0.0,74,0.00,CLR,,0.00,WeatherDisplay:10.37,2013-03-31 16:25:00,
2013-03-31 08:30:00,26.1,18.3,30.29,NE,50,1.0,0.0,72,0.00,CLR,,0.00,WeatherDisplay:10.37,2013-03-31 16:30:00,
2013-03-31 08:35:00,26.1,18.6,30.29,ENE,63,1.0,0.0,73,0.00,CLR,,0.00,WeatherDisplay:10.37,2013-03-31 16:35:00,
2013-03-31 08:40:00,26.2,19.4,30.29,East,80,0.0,0.0,75,0.00,CLR,,0.00,WeatherDisplay:10.37,2013-03-31 16:40:00,
2013-03-31 08:45:00,26.4,18.6,30.29,East,97,1.0,0.0,72,0.00,CLR,,0.00,WeatherDisplay:10.37,2013-03-31 16:45:00,
2013-03-31 08:55:00,26.9,19.1,30.29,East,96,0.0,0.0,72,0.00,CLR,,0.00,WeatherDisplay:10.37,2013-03-31 16:55:00,
2013-03-31 09:00:00,27.3,19.2,30.29,East,80,0.0,0.0,71,0.00,CLR,,0.00,WeatherDisplay:10.37,2013-03-31 17:00:00,
2013-03-31 09:05:00,27.7,18.8,30.29,ENE,57,1.0,0.0,69,0.00,CLR,,0.00,WeatherDisplay:10.37,2013-03-31 17:05:00,
2013-03-31 09:10:00,28.1,19.2,30.29,NE,46,0.0,0.0,69,0.00,CLR,,0.00,WeatherDisplay:10.37,2013-03-31 17:10:00,
2013-03-31 09:15:00,28.2,19.0,30.29,East,88,1.0,0.0,68,0.00,CLR,,0.00,WeatherDisplay:10.37,2013-03-31 17:15:00,
2013-03-31 09:20:00,28.2,18.7,30.29,East,90,1.0,0.0,67,0.00,CLR,,0.00,WeatherDisplay:10.37,2013-03-31 17:20:00,
2013-03-31 09:25:00,28.4,19.9,30.29,ENE,69,1.0,0.0,70,0.00,CLR,,0.00,WeatherDisplay:10.37,2013-03-31 17:25:00,
2013-03-31 09:30:00,28.8,19.5,30.29,ENE,60,2.0,0.0,68,0.00,CLR,,0.00,WeatherDisplay:10.37,2013-03-31 17:30:00,
2013-03-31 09:35:00,29.1,19.5,30.29,ENE,66,1.0,0.0,67,0.00,CLR,,0.00,WeatherDisplay:10.37,2013-03-31 17:35:00,
2013-03-31 09:45:00,29.7,19.3,30.29,East,87,1.0,0.0,65,0.00,CLR,,0.00,WeatherDisplay:10.37,2013-03-31 17:45:00,
2013-03-31 09:55:00,30.1,19.4,30.29,ENE,67,0.0,0.0,64,0.00,CLR,,0.00,WeatherDisplay:10.37,2013-03-31 17:55:00,
2013-03-31 10:00:00,30.4,20.4,30.29,East,94,1.0,0.0,66,0.00,CLR,,0.00,WeatherDisplay:10.37,2013-03-31 18:00:00,
2013-03-31 10:05:00,30.4,19.3,30.29,East,95,0.0,0.0,63,0.00,CLR,,0.00,WeatherDisplay:10.37,2013-03-31 18:05:00,
2013-03-31 10:15:00,30.5,19.4,30.29,ESE,103,0.0,0.0,63,0.00,CLR,,0.00,WeatherDisplay:10.37,2013-03-31 18:15:00,
2013-03-31 10:20:00,30.5,19.4,30.29,ESE,121,1.0,0.0,63,0.00,CLR,,0.00,WeatherDisplay:10.37,2013-03-31 18:20:00,
2013-03-31 10:30:00,31.8,20.6,30.29,ESE,117,0.0,0.0,63,0.00,CLR,,0.00,WeatherDisplay:10.37,2013-03-31 18:30:00,
2013-03-31 10:35:00,32.2,20.6,30.29,SE,136,0.0,0.0,62,0.00,CLR,,0.00,WeatherDisplay:10.37,2013-03-31 18:35:00,
2013-03-31 10:45:00,33.1,21.9,30.29,SSE,163,0.0,0.0,63,0.00,CLR,,0.00,WeatherDisplay:10.37,2013-03-31 18:45:00,
2013-03-31 10:55:00,34.0,23.1,30.29,SW,232,1.0,0.0,64,0.00,CLR,,0.00,WeatherDisplay:10.37,2013-03-31 18:55:00,
2013-03-31 11:00:00,34.1,24.3,30.29,WSW,237,0.0,0.0,67,0.00,CLR,,0.00,WeatherDisplay:10.37,2013-03-31 19:00:00,
2013-03-31 11:05:00,34.3,23.4,30.29,WSW,240,1.0,0.0,64,0.00,CLR,,0.00,WeatherDisplay:10.37,2013-03-31 19:05:00,
2013-03-31 11:10:00,34.5,23.2,30.29,SW,235,1.0,0.0,63,0.00,CLR,,0.00,WeatherDisplay:10.37,2013-03-31 19:10:00,
2013-03-31 11:15:00,34.9,23.2,30.29,SSW,199,1.0,0.0,62,0.00,CLR,,0.00,WeatherDisplay:10.37,2013-03-31 19:15:00,
2013-03-31 11:20:00,35.4,23.7,30.29,SE,144,1.0,0.0,62,0.00,CLR,,0.00,WeatherDisplay:10.37,2013-03-31 19:20:00,
2013-03-31 11:25:00,35.8,24.8,30.29,ESE,103,0.0,0.0,64,0.00,CLR,,0.00,WeatherDisplay:10.37,2013-03-31 19:25:00,
2013-03-31 11:30:00,36.3,25.3,30.29,ESE,114,1.0,0.0,64,0.00,CLR,,0.00,WeatherDisplay:10.37,2013-03-31 19:30:00,
2013-03-31 11:40:00,36.7,26.0,30.29,ESE,116,2.0,0.0,65,0.00,CLR,,0.00,WeatherDisplay:10.37,2013-03-31 19:40:00,
2013-03-31 11:45:00,37.0,26.7,30.29,East,84,2.0,0.0,66,0.00,CLR,,0.00,WeatherDisplay:10.37,2013-03-31 19:45:00,
2013-03-31 11:50:00,37.4,27.1,30.29,ENE,73,2.0,0.0,66,0.00,CLR,,0.00,WeatherDisplay:10.37,2013-03-31 19:50:00,
2013-03-31 11:55:00,38.5,27.0,30.29,East,86,1.0,0.0,63,0.00,CLR,,0.00,WeatherDisplay:10.37,2013-03-31 19:55:00,
2013-03-31 12:05:00,39.0,29.0,30.29,ESE,113,1.0,0.0,67,0.00,CLR,,0.00,WeatherDisplay:10.37,2013-03-31 20:05:00,
2013-03-31 12:15:00,38.8,28.4,30.29,ENE,78,2.0,0.0,66,0.00,CLR,,0.00,WeatherDisplay:10.37,2013-03-31 20:15:00,
2013-03-31 12:25:00,39.9,28.7,30.29,ESE,102,2.0,0.0,64,0.00,CLR,,0.00,WeatherDisplay:10.37,2013-03-31 20:25:00,
2013-03-31 12:30:00,39.9,29.5,30.29,SE,145,0.0,0.0,66,0.00,CLR,,0.00,WeatherDisplay:10.37,2013-03-31 20:30:00,
2013-03-31 12:40:00,39.1,28.7,30.29,ENE,73,1.0,0.0,66,0.00,CLR,,0.00,WeatherDisplay:10.37,2013-03-31 20:40:00,
2013-03-31 12:45:00,38.8,27.7,30.29,SE,124,1.0,0.0,64,0.00,CLR,,0.00,WeatherDisplay:10.37,2013-03-31 20:45:00,
2013-03-31 12:55:00,40.8,30.3,30.29,East,101,2.0,0.0,66,0.00,CLR,,0.00,WeatherDisplay:10.37,2013-03-31 20:55:00,
2013-03-31 13:00:00,41.5,31.4,30.29,ESE,113,2.0,0.0,67,0.00,CLR,,0.00,WeatherDisplay:10.37,2013-03-31 21:00:00,
2013-03-31 13:05:00,41.8,31.6,30.29,ESE,109,1.0,0.0,67,0.00,CLR,,0.00,WeatherDisplay:10.37,2013-03-31 21:05:00,
2013-03-31 13:10:00,41.7,31.2,30.29,East,81,2.0,0.0,66,0.00,CLR,,0.00,WeatherDisplay:10.37,2013-03-31 21:10:00,
2013-03-31 13:15:00,41.7,31.9,30.29,ENE,67,2.0,0.0,68,0.00,CLR,,0.00,WeatherDisplay:10.37,2013-03-31 21:15:00,
2013-03-31 13:20:00,41.9,32.4,30.29,East,94,0.0,0.0,69,0.00,CLR,,0.00,WeatherDisplay:10.37,2013-03-31 21:20:00,
2013-03-31 13:30:00,42.3,32.5,30.28,NE,50,2.0,0.0,68,0.00,CLR,,0.00,WeatherDisplay:10.37,2013-03-31 21:30:00,
2013-03-31 13:40:00,42.4,33.0,30.28,ESE,112,1.0,0.0,69,0.00,CLR,,0.00,WeatherDisplay:10.37,2013-03-31 21:40:00,
2013-03-31 13:50:00,41.7,32.3,30.28,ESE,112,0.0,0.0,69,0.00,CLR,,0.00,WeatherDisplay:10.37,2013-03-31 21:50:00,
2013-03-31 13:55:00,41.7,32.3,30.28,SE,124,2.0,0.0,69,0.00,CLR,,0.00,WeatherDisplay:10.37,2013-03-31 21:55:00,
2013-03-31 14:00:00,41.7,32.3,30.28,SSE,160,1.0,0.0,69,0.00,CLR,,0.00,WeatherDisplay:10.37,2013-03-31 22:00:00,
2013-03-31 14:05:00,42.4,32.6,30.28,SE,142,1.0,0.0,68,0.00,CLR,,0.00,WeatherDisplay:10.37,2013-03-31 22:05:00,
2013-03-31 14:10:00,42.6,32.8,30.28,ESE,109,2.0,0.0,68,0.00,CLR,,0.00,WeatherDisplay:10.37,2013-03-31 22:10:00,
2013-03-31 14:20:00,41.7,32.3,30.28,ENE,76,2.0,0.0,69,0.00,CLR,,0.00,WeatherDisplay:10.37,2013-03-31 22:20:00,
2013-03-31 14:25:00,41.7,31.9,30.27,East,97,1.0,0.0,68,0.00,CLR,,0.00,WeatherDisplay:10.37,2013-03-31 22:25:00,
2013-03-31 14:30:00,41.5,32.1,30.27,East,94,2.0,0.0,69,0.00,CLR,,0.00,WeatherDisplay:10.37,2013-03-31 22:30:00,
2013-03-31 14:35:00,41.0,31.2,30.27,East,90,2.0,0.0,68,0.00,CLR,,0.00,WeatherDisplay:10.37,2013-03-31 22:35:00,
2013-03-31 14:40:00,40.8,32.1,30.27,East,93,2.0,0.0,71,0.00,CLR,,0.00,WeatherDisplay:10.37,2013-03-31 22:40:00,
2013-03-31 14:45:00,40.2,30.9,30.26,ENE,72,3.0,0.0,69,0.00,CLR,,0.00,WeatherDisplay:10.37,2013-03-31 22:45:00,
2013-03-31 14:50:00,39.4,29.7,30.26,ENE,72,2.0,0.0,68,0.00,CLR,,0.00,WeatherDisplay:10.37,2013-03-31 22:50:00,
2013-03-31 14:55:00,39.2,29.5,30.26,ESE,109,1.0,0.0,68,0.00,CLR,,0.00,WeatherDisplay:10.37,2013-03-31 22:55:00,
2013-03-31 15:00:00,39.2,29.5,30.26,ESE,109,1.0,0.0,68,0.00,CLR,,0.00,WeatherDisplay:10.37,2013-03-31 23:00:00,
2013-03-31 15:10:00,40.8,31.0,30.26,ESE,119,1.0,0.0,68,0.00,CLR,,0.00,WeatherDisplay:10.37,2013-03-31 23:10:00,
2013-03-31 15:15:00,42.7,32.5,30.26,ESE,115,2.0,0.0,67,0.00,CLR,,0.00,WeatherDisplay:10.37,2013-03-31 23:15:00,
2013-03-31 15:25:00,45.1,35.6,30.26,ESE,122,1.0,0.0,69,0.00,CLR,,0.00,WeatherDisplay:10.37,2013-03-31 23:25:00,
2013-03-31 15:30:00,45.3,35.4,30.25,SE,144,2.0,0.0,68,0.00,CLR,,0.00,WeatherDisplay:10.37,2013-03-31 23:30:00,
2013-03-31 15:40:00,44.3,34.4,30.25,ESE,107,1.0,0.0,68,0.00,CLR,,0.00,WeatherDisplay:10.37,2013-03-31 23:40:00,
2013-03-31 15:45:00,42.9,32.7,30.25,SE,136,1.0,0.0,67,0.00,CLR,,0.00,WeatherDisplay:10.37,2013-03-31 23:45:00,
2013-03-31 15:50:00,42.0,32.9,30.25,South,176,0.0,0.0,70,0.00,CLR,,0.00,WeatherDisplay:10.37,2013-03-31 23:50:00,
2013-03-31 15:55:00,41.4,31.2,30.25,South,173,2.0,0.0,67,0.00,CLR,,0.00,WeatherDisplay:10.37,2013-03-31 23:55:00,
2013-03-31 16:00:00,40.6,30.9,30.25,South,188,2.0,0.0,68,0.00,CLR,,0.00,WeatherDisplay:10.37,2013-04-01 00:00:00,
2013-03-31 16:05:00,39.9,30.9,30.25,SW,220,2.0,0.0,70,0.00,CLR,,0.00,WeatherDisplay:10.37,2013-04-01 00:05:00,
2013-03-31 16:10:00,39.9,30.2,30.25,WSW,239,0.0,0.0,68,0.00,CLR,,0.00,WeatherDisplay:10.37,2013-04-01 00:10:00,
2013-03-31 16:15:00,40.3,31.3,30.25,West,266,2.0,0.0,70,0.00,CLR,,0.00,WeatherDisplay:10.37,2013-04-01 00:15:00,
2013-03-31 16:25:00,40.3,31.3,30.25,NW,319,1.0,0.0,70,0.00,CLR,,0.00,WeatherDisplay:10.37,2013-04-01 00:25:00,
2013-03-31 16:30:00,40.5,31.4,30.24,WNW,285,1.0,0.0,70,0.00,CLR,,0.00,WeatherDisplay:10.37,2013-04-01 00:30:00,
2013-03-31 16:35:00,40.6,31.6,30.24,WNW,294,0.0,0.0,70,0.00,CLR,,0.00,WeatherDisplay:10.37,2013-04-01 00:35:00,
2013-03-31 16:40:00,41.2,32.2,30.24,WSW,255,3.0,0.0,70,0.00,CLR,,0.00,WeatherDisplay:10.37,2013-04-01 00:40:00,
2013-03-31 16:45:00,41.4,32.0,30.24,SW,219,1.0,0.0,69,0.00,CLR,,0.00,WeatherDisplay:10.37,2013-04-01 00:45:00,
2013-03-31 16:55:00,42.1,32.3,30.24,South,190,1.0,0.0,68,0.00,CLR,,0.00,WeatherDisplay:10.37,2013-04-01 00:55:00,
2013-03-31 17:00:00,42.5,33.4,30.24,SSE,162,1.0,0.0,70,0.00,CLR,,0.00,WeatherDisplay:10.37,2013-04-01 01:00:00,
2013-03-31 17:10:00,41.8,32.4,30.23,SE,145,1.0,0.0,69,0.00,CLR,,0.00,WeatherDisplay:10.37,2013-04-01 01:10:00,
2013-03-31 17:15:00,41.2,31.4,30.23,South,184,2.0,0.0,68,0.00,CLR,,0.00,WeatherDisplay:10.37,2013-04-01 01:15:00,
2013-03-31 17:25:00,40.6,30.5,30.23,ESE,113,1.0,0.0,67,0.00,CLR,,0.00,WeatherDisplay:10.37,2013-04-01 01:25:00,
2013-03-31 17:30:00,40.2,30.8,30.23,East,98,2.0,0.0,69,0.00,CLR,,0.00,WeatherDisplay:10.37,2013-04-01 01:30:00,
2013-03-31 17:35:00,39.5,29.8,30.23,ENE,74,1.0,0.0,68,0.00,CLR,,0.00,WeatherDisplay:10.37,2013-04-01 01:35:00,
2013-03-31 17:45:00,38.8,28.8,30.22,ESE,118,1.0,0.0,67,0.00,CLR,,0.00,WeatherDisplay:10.37,2013-04-01 01:45:00,
2013-03-31 17:55:00,38.7,29.8,30.22,SSE,155,1.0,0.0,70,0.00,CLR,,0.00,WeatherDisplay:10.37,2013-04-01 01:55:00,
2013-03-31 18:00:00,38.5,28.5,30.22,East,80,1.0,0.0,67,0.00,CLR,,0.00,WeatherDisplay:10.37,2013-04-01 02:00:00,
2013-03-31 18:10:00,38.1,28.1,30.22,NE,40,1.0,0.0,67,0.00,CLR,,0.00,WeatherDisplay:10.37,2013-04-01 02:10:00,
2013-03-31 18:15:00,37.9,28.7,30.22,ENE,62,0.0,0.0,69,0.00,CLR,,0.00,WeatherDisplay:10.37,2013-04-01 02:15:00,
2013-03-31 18:20:00,37.9,28.3,30.22,ENE,68,1.0,0.0,68,0.00,CLR,,0.00,WeatherDisplay:10.37,2013-04-01 02:20:00,
2013-03-31 18:25:00,37.9,27.9,30.22,ENE,67,0.0,0.0,67,0.00,CLR,,0.00,WeatherDisplay:10.37,2013-04-01 02:25:00,
2013-03-31 18:30:00,37.8,27.8,30.22,ENE,65,0.0,0.0,67,0.00,CLR,,0.00,WeatherDisplay:10.37,2013-04-01 02:30:00,
2013-03-31 18:35:00,37.8,28.1,30.22,SE,146,2.0,0.0,68,0.00,CLR,,0.00,WeatherDisplay:10.37,2013-04-01 02:35:00,
2013-03-31 18:40:00,37.6,28.0,30.22,SW,228,1.0,0.0,68,0.00,CLR,,0.00,WeatherDisplay:10.37,2013-04-01 02:40:00,
2013-03-31 18:45:00,37.4,27.1,30.22,WSW,247,1.0,0.0,66,0.00,CLR,,0.00,WeatherDisplay:10.37,2013-04-01 02:45:00,
2013-03-31 18:55:00,37.0,27.1,30.22,West,261,2.0,0.0,67,0.00,CLR,,0.00,WeatherDisplay:10.37,2013-04-01 02:55:00,
2013-03-31 19:00:00,36.7,27.1,30.22,WSW,245,1.0,0.0,68,0.00,CLR,,0.00,WeatherDisplay:10.37,2013-04-01 03:00:00,
2013-03-31 19:10:00,36.1,26.9,30.21,West,266,0.0,0.0,69,0.00,CLR,,0.00,WeatherDisplay:10.37,2013-04-01 03:10:00,
2013-03-31 19:15:00,35.8,27.6,30.21,NW,305,0.0,0.0,72,0.00,CLR,,0.00,WeatherDisplay:10.37,2013-04-01 03:15:00,
2013-03-31 19:25:00,35.1,28.0,30.21,North,2,1.0,0.0,75,0.00,CLR,,0.00,WeatherDisplay:10.37,2013-04-01 03:25:00,
2013-03-31 19:30:00,34.6,27.5,30.21,NNW,341,1.0,0.0,75,0.00,CLR,,0.00,WeatherDisplay:10.37,2013-04-01 03:30:00,
2013-03-31 19:40:00,34.0,27.2,30.21,North,353,1.0,0.0,76,0.00,CLR,,0.00,WeatherDisplay:10.37,2013-04-01 03:40:00,
2013-03-31 19:45:00,33.6,26.9,30.21,NNW,342,2.0,0.0,76,0.00,CLR,,0.00,WeatherDisplay:10.37,2013-04-01 03:45:00,
2013-03-31 19:50:00,33.4,27.0,30.21,North,4,1.0,0.0,77,0.00,CLR,,0.00,WeatherDisplay:10.37,2013-04-01 03:50:00,
2013-03-31 19:55:00,33.1,26.7,30.21,NNE,26,2.0,0.0,77,0.00,CLR,,0.00,WeatherDisplay:10.37,2013-04-01 03:55:00,
2013-03-31 20:05:00,33.0,26.6,30.21,NNE,19,2.0,0.0,77,0.00,CLR,,0.00,WeatherDisplay:10.37,2013-04-01 04:05:00,
2013-03-31 20:10:00,32.8,26.4,30.21,NNE,17,1.0,0.0,77,0.00,CLR,,0.00,WeatherDisplay:10.37,2013-04-01 04:10:00,
2013-03-31 20:15:00,32.7,26.6,30.21,North,359,2.0,0.0,78,0.00,CLR,,0.00,WeatherDisplay:10.37,2013-04-01 04:15:00,
2013-03-31 20:25:00,32.7,26.0,30.21,North,360,1.0,0.0,76,0.00,CLR,,0.00,WeatherDisplay:10.37,2013-04-01 04:25:00,
2013-03-31 20:35:00,32.5,25.8,30.21,WNW,302,1.0,0.0,76,0.00,CLR,,0.00,WeatherDisplay:10.37,2013-04-01 04:35:00,
2013-03-31 20:40:00,32.4,25.3,30.21,West,279,0.0,0.0,75,0.00,CLR,,0.00,WeatherDisplay:10.37,2013-04-01 04:40:00,
2013-03-31 20:45:00,32.2,25.1,30.21,West,270,1.0,0.0,75,0.00,CLR,,0.00,WeatherDisplay:10.37,2013-04-01 04:45:00,
2013-03-31 20:50:00,31.8,25.4,30.21,WNW,298,0.0,0.0,77,0.00,CLR,,0.00,WeatherDisplay:10.37,2013-04-01 04:50:00,
2013-03-31 20:55:00,31.5,25.7,30.21,NNW,341,0.0,0.0,79,0.00,CLR,,0.00,WeatherDisplay:10.37,2013-04-01 04:55:00,
2013-03-31 21:00:00,30.4,24.3,30.21,North,353,1.0,0.0,78,0.00,CLR,,0.00,WeatherDisplay:10.37,2013-04-01 05:00:00,
2013-03-31 21:10:00,29.7,24.8,30.20,NNE,23,1.0,0.0,82,0.00,CLR,,0.00,WeatherDisplay:10.37,2013-04-01 05:10:00,
2013-03-31 21:15:00,29.5,23.8,30.20,NE,42,1.0,0.0,79,0.00,CLR,,0.00,WeatherDisplay:10.37,2013-04-01 05:15:00,
2013-03-31 21:20:00,29.2,23.8,30.20,NE,43,1.0,0.0,80,0.00,CLR,,0.00,WeatherDisplay:10.37,2013-04-01 05:20:00,
2013-03-31 21:25:00,29.1,24.0,30.20,NE,45,2.0,0.0,81,0.00,CLR,,0.00,WeatherDisplay:10.37,2013-04-01 05:25:00,
2013-03-31 21:30:00,29.1,24.0,30.20,NE,46,1.0,0.0,81,0.00,CLR,,0.00,WeatherDisplay:10.37,2013-04-01 05:30:00,
2013-03-31 21:40:00,28.6,24.1,30.20,NE,36,0.0,0.0,83,0.00,CLR,,0.00,WeatherDisplay:10.37,2013-04-01 05:40:00,
2013-03-31 21:45:00,28.5,23.7,30.20,NE,41,0.0,0.0,82,0.00,CLR,,0.00,WeatherDisplay:10.37,2013-04-01 05:45:00,
2013-03-31 21:55:00,28.2,23.7,30.20,NE,34,0.0,0.0,83,0.00,CLR,,0.00,WeatherDisplay:10.37,2013-04-01 05:55:00,
2013-03-31 22:00:00,28.0,23.5,30.20,NNE,32,0.0,0.0,83,0.00,CLR,,0.00,WeatherDisplay:10.37,2013-04-01 06:00:00,
2013-03-31 22:10:00,28.2,23.4,30.20,North,11,0.0,0.0,82,0.00,CLR,,0.00,WeatherDisplay:10.37,2013-04-01 06:10:00,
2013-03-31 22:15:00,28.2,24.0,30.20,NNE,15,0.0,0.0,84,0.00,CLR,,0.00,WeatherDisplay:10.37,2013-04-01 06:15:00,
2013-03-31 22:25:00,28.6,24.4,30.20,North,5,0.0,0.0,84,0.00,CLR,,0.00,WeatherDisplay:10.37,2013-04-01 06:25:00,
2013-03-31 22:30:00,28.8,24.2,30.20,NNE,16,0.0,0.0,83,0.00,CLR,,0.00,WeatherDisplay:10.37,2013-04-01 06:30:00,
2013-03-31 22:40:00,28.8,24.5,30.20,NE,40,0.0,0.0,84,0.00,CLR,,0.00,WeatherDisplay:10.37,2013-04-01 06:40:00,
2013-03-31 22:45:00,28.6,24.6,30.20,NNE,25,0.0,0.0,85,0.00,CLR,,0.00,WeatherDisplay:10.37,2013-04-01 06:45:00,
2013-03-31 22:50:00,28.2,24.6,30.20,North,358,0.0,0.0,86,0.00,CLR,,0.00,WeatherDisplay:10.37,2013-04-01 06:50:00,
2013-03-31 22:55:00,28.1,23.9,30.20,NNW,342,0.0,0.0,84,0.00,CLR,,0.00,WeatherDisplay:10.37,2013-04-01 06:55:00,
2013-03-31 23:00:00,28.0,24.4,30.20,North,350,0.0,0.0,86,0.00,CLR,,0.00,WeatherDisplay:10.37,2013-04-01 07:00:00,
2013-03-31 23:05:00,27.9,24.2,30.20,NE,43,0.0,0.0,86,0.00,CLR,,0.00,WeatherDisplay:10.37,2013-04-01 07:05:00,
2013-03-31 23:15:00,27.8,23.8,30.20,North,353,0.0,0.0,85,0.00,CLR,,0.00,WeatherDisplay:10.37,2013-04-01 07:15:00,
2013-03-31 23:20:00,27.6,23.7,30.20,NNW,336,0.0,0.0,85,0.00,CLR,,0.00,WeatherDisplay:10.37,2013-04-01 07:20:00,
2013-03-31 23:30:00,27.5,23.0,30.20,WSW,242,0.0,0.0,83,0.00,CLR,,0.00,WeatherDisplay:10.37,2013-04-01 07:30:00,
2013-03-31 23:40:00,27.6,23.7,30.19,West,270,0.0,0.0,85,0.00,CLR,,0.00,WeatherDisplay:10.37,2013-04-01 07:40:00,
2013-03-31 23:45:00,27.7,23.8,30.20,WSW,245,0.0,0.0,85,0.00,CLR,,0.00,WeatherDisplay:10.37,2013-04-01 07:45:00,
2013-03-31 23:55:00,27.3,23.7,30.19,SE,145,0.0,0.0,86,0.00,CLR,,0.00,WeatherDisplay:10.37,2013-04-01 07:55:00,